Regional Weather Roundup
Issued by NWS

Home | Current Version | Previous Version | Text Only | Print | Product List | Glossary Off
Versions: 1 2 3 4 5 6 7 8 9 10 11 12 13 14 15 16 17 18 19 20 21 22 23 24 25 26 27 28 29 30 31 32 33 34 35 36 37 38 39 40 41 42 43 44 45 46 47 48 49 50

000
ASUS43 KBIS 090610
RWRND

NORTH DAKOTA REGIONAL WEATHER ROUNDUP
NATIONAL WEATHER SERVICE BISMARCK ND
1200 AM CST FRI DEC 09 2016

NOTE: "FAIR" INDICATES FEW OR NO CLOUDS BELOW 12,000 FEET WITH NO
SIGNIFICANT WEATHER AND/OR OBSTRUCTIONS TO VISIBILITY.


NDZ001>003-009>011-017-090700-
NORTHWEST NORTH DAKOTA

CITY           SKY/WX    TMP DP  RH WIND       PRES   REMARKS
WILLISTON      CLOUDY   -17 -23  73 CALM      30.58R
6HR MIN TEMP: -18; 6HR MAX TEMP:  -5;

MINOT          CLOUDY    -6 -11  79 W10       30.55F WCI -24
MINOT AFB      CLOUDY    -9 -15  77 NW12      30.55F WCI -29
$$

NDZ018>021-031>035-040>046-090700-
SOUTHWEST NORTH DAKOTA

CITY           SKY/WX    TMP DP  RH WIND       PRES   REMARKS
BISMARCK       CLOUDY    -3  -8  79 W5        30.60S WCI -13
6HR MIN TEMP:  -5; 6HR MAX TEMP:   2;

DICKINSON      CLOUDY   -11 -14  86 CALM      30.46F
GARRISON         N/A    -11 -16  78 N9        30.55S WCI -29
6HR MIN TEMP: -12; 6HR MAX TEMP:  -5;

HETTINGER ARPT CLOUDY   -20 -24  82 CALM      30.47F
$$

NDZ004>008-012>016-024-026-027-054-090700-
NORTHEAST NORTH DAKOTA

CITY           SKY/WX    TMP DP  RH WIND       PRES   REMARKS
GRAND FORKS    FLURRIES   8   1  73 NW9       30.58S WCI  -5
GRND FRKS AFB  CLOUDY     7   0  72 NW8       30.58S WCI  -6
DEVILS LAKE    FLURRIES  -2  -5  87 NW9       30.55S WCI -18
$$

NDZ022-023-025-028>030-036>039-047>053-090700-
SOUTHEAST NORTH DAKOTA

CITY           SKY/WX    TMP DP  RH WIND       PRES   REMARKS
FARGO          CLOUDY     8   1  73 W7        30.59S WCI  -3
6HR MIN TEMP:   6; 6HR MAX TEMP:  13; 6HR PCP: TRACE;

JAMESTOWN      CLEAR     -5 -10  79 W9        30.56S WCI -22
$$





USA.gov is the U.S. government's official web portal to all federal, state and local government web resources and services.